Regional Weather Roundup
Issued by NWS

Home | Current Version | Previous Version | Text Only | Print | Product List | Glossary On
Versions: 1 2 3 4 5 6 7 8 9 10 11 12 13 14 15 16 17 18 19 20 21 22 23 24 25 26 27 28
000
ASUS45 KCYS 181310
RWRWY

WYOMING REGIONAL WEATHER ROUNDUP
NATIONAL WEATHER SERVICE CHEYENNE WY
600 AM MST MON DEC 18 2017

NOTE:  "FAIR" INDICATES FEW OR NO CLOUDS BELOW 12,000 FEET
WITH NO SIGNIFICANT WEATHER AND/OR OBSTRUCTIONS TO VISIBILITY.

WYZ001-181400-
YELLOWSTONE NATIONAL PARK

CITY           SKY/WX    TMP DP  RH WIND       PRES   REMARKS
LK YELLOWSTONE   N/A     15  13  91 CALM      30.06S
W YELLOWSTONE  NOT AVBL

$$
WYZ002>013-054>058-071-098>099-181400-
NORTHERN WYOMING

CITY           SKY/WX    TMP DP  RH WIND       PRES   REMARKS
JACKSON        LGT SNOW  24  19  81 S14       30.11S WCI  12
CODY           FAIR      39  21  48 W13G22    29.85S WCI  31
GREYBULL       FAIR      12   9  87 CALM      29.92R
WORLAND        FAIR      12  10  92 S7        29.90R WCI   1
SHERIDAN       FAIR      18  15  88 N5        29.71R WCI  11
BUFFALO        FAIR      36  18  48 NW9       29.73R WCI  29
GILLETTE       FAIR      33  22  63 SW21      29.72F WCI  21
HULETT         FAIR      32  21  64 S16       29.74F WCI  21
NEWCASTLE      FAIR      23  16  74 E3        29.82F

$$
WYZ014>020-022>026-101>103-181400-
CENTRAL WYOMING

CITY           SKY/WX    TMP DP  RH WIND       PRES   REMARKS
BIG PINEY      FAIR      12   9  87 NW3       30.11R
PINEDALE       CLOUDY    21  16  79 CALM      30.11R
DUBOIS         CLOUDY    27  18  69 N26G37    29.93R WCI  11
LANDER         FAIR      25  17  72 SW6       29.89F WCI  18
RIVERTON       FAIR      20  15  81 SW8       29.90F WCI  10
CASPER         FAIR      29  18  63 SW26G39   29.90R WCI  14
DOUGLAS        FAIR      35  20  54 SW12      29.87S WCI  27

$$
WYZ021-027>030-104>119-181400-
SOUTHERN WYOMING

CITY           SKY/WX    TMP DP  RH WIND       PRES   REMARKS
EVANSTON       FAIR      19  13  77 SW12      30.16R WCI   7
FORT BRIDGER   CLOUDY    28  14  54 SW10      30.17S WCI  19
ROCK SPRINGS   FAIR      25  13  60 SW22      30.11S WCI  10
DIXON          CLOUDY    24  19  82 CALM      30.18R
RAWLINS        FAIR      27  17  66 SW25G37   30.04R WCI  12
LARAMIE        FAIR      27  18  69 SW22      29.96S WCI  13
CHEYENNE       FAIR      36  17  46 W21       29.93R WCI  25
TORRINGTON     FAIR      39  22  50 SW10      29.87F WCI  32
PINE BLUFFS    FAIR      19  14  79 SW5       29.94R WCI  13

$$




USA.gov is the U.S. government's official web portal to all federal, state and local government web resources and services.